| time (UTC) | temp F | wind direction | speed MPH | gust MPH | rain 1hr in | rain 24hr in | rain mn in | humidity % | barometer mb |
| 20260902234840 | 88 | 190 | 6.0 | 9.0 | 0.00 | 0.00 | 0.00 | 81 | 1006.8 |
| 20260902234335 | 88 | 150 | 4.0 | 6.0 | 0.00 | 0.00 | 0.00 | 81 | 1006.7 |
| 20260902233833 | 89 | 213 | 1.0 | 2.0 | 0.00 | 0.00 | 0.00 | 80 | 1006.6 |
| 20260902233333 | 89 | 199 | 2.0 | 4.0 | 0.00 | 0.00 | 0.00 | 79 | 1006.4 |
| 20260902232832 | 89 | 183 | 2.0 | 3.0 | 0.00 | 0.00 | 0.00 | 79 | 1006.8 |
| 20260902232327 | 89 | 226 | 3.0 | 3.0 | 0.00 | 0.00 | 0.00 | 78 | 1006.5 |
| 20260902231826 | 89 | 249 | 3.0 | 4.0 | 0.00 | 0.00 | 0.00 | 78 | 1006.7 |
| 20260902231322 | 89 | 198 | 4.0 | 6.0 | 0.00 | 0.00 | 0.00 | 78 | 1006.7 |
| 20260902230817 | 90 | 280 | 5.0 | 8.0 | 0.00 | 0.00 | 0.00 | 78 | 1006.4 |
| 20260902230316 | 90 | 103 | 2.0 | 6.0 | 0.00 | 0.00 | 0.00 | 77 | 1006.3 |
| 20260902225810 | 90 | 204 | 3.0 | 4.0 | 0.00 | 0.00 | 0.00 | 78 | 1006.7 |
| 20260902225306 | 90 | 225 | 3.0 | 4.0 | 0.00 | 0.00 | 0.00 | 77 | 1006.4 |
| 20260902224804 | 91 | 208 | 1.0 | 2.0 | 0.00 | 0.00 | 0.00 | 77 | 1006.3 |
| 20260902224259 | 91 | 54 | 2.0 | 4.0 | 0.00 | 0.00 | 0.00 | 77 | 1006.3 |
| 20260902223756 | 91 | 180 | 7.0 | 10.0 | 0.00 | 0.00 | 0.00 | 76 | 1006.5 |
| 20260902223255 | 91 | 176 | 3.0 | 4.0 | 0.00 | 0.00 | 0.00 | 76 | 1006.3 |
| 20260902222748 | 91 | 203 | 2.0 | 4.0 | 0.00 | 0.00 | 0.00 | 75 | 1006.5 |
| 20260902222243 | 92 | 144 | 4.0 | 7.0 | 0.00 | 0.00 | 0.00 | 75 | 1006.5 |
| 20260902221737 | 92 | 192 | 4.0 | 7.0 | 0.00 | 0.00 | 0.00 | 73 | 1006.4 |
| 20260902221236 | 91 | 235 | 2.0 | 4.0 | 0.00 | 0.00 | 0.00 | 75 | 1006.7 |
| 20260902220731 | 92 | 176 | 3.0 | 3.0 | 0.00 | 0.00 | 0.00 | 75 | 1006.7 |
| 20260902220226 | 92 | 168 | 2.0 | 3.0 | 0.00 | 0.00 | 0.00 | 74 | 1006.5 |
| 20260902215722 | 92 | 214 | 1.0 | 1.0 | 0.00 | 0.00 | 0.00 | 74 | 1006.5 |
| 20260902215217 | 93 | 206 | 2.0 | 3.0 | 0.00 | 0.00 | 0.00 | 73 | 1006.6 |
| 20260902214713 | 92 | 208 | 1.0 | 1.0 | 0.00 | 0.00 | 0.00 | 74 | 1006.5 |
| 20260902214211 | 92 | 168 | 3.0 | 4.0 | 0.00 | 0.00 | 0.00 | 73 | 1006.7 |
| 20260902213707 | 92 | 197 | 4.0 | 4.0 | 0.00 | 0.00 | 0.00 | 74 | 1006.9 |
| 20260902213201 | 92 | 221 | 1.0 | 2.0 | 0.00 | 0.00 | 0.00 | 74 | 1006.7 |
| 20260902212656 | 92 | 221 | 2.0 | 3.0 | 0.00 | 0.00 | 0.00 | 73 | 1006.8 |
| 20260902212153 | 92 | 195 | 2.0 | 2.0 | 0.00 | 0.00 | 0.00 | 72 | 1006.8 |
| 20260902211649 | 93 | 190 | 3.0 | 3.0 | 0.00 | 0.00 | 0.00 | 72 | 1006.9 |
| 20260902211149 | 94 | 222 | 3.0 | 4.0 | 0.00 | 0.00 | 0.00 | 71 | 1006.9 |
| 20260902210648 | 94 | 202 | 1.0 | 1.0 | 0.00 | 0.00 | 0.00 | 69 | 1006.9 |
| 20260902210143 | 94 | 222 | 3.0 | 3.0 | 0.00 | 0.00 | 0.00 | 70 | 1007.1 |
| 20260902205642 | 95 | 226 | 2.0 | 2.0 | 0.00 | 0.00 | 0.00 | 68 | 1007.0 |
| 20260902205137 | 96 | 159 | 1.0 | 4.0 | 0.00 | 0.00 | 0.00 | 67 | 1007.0 |
| 20260902204632 | 95 | 274 | 1.0 | 1.0 | 0.00 | 0.00 | 0.00 | 68 | 1006.9 |
| 20260902204126 | 96 | 219 | 2.0 | 3.0 | 0.00 | 0.00 | 0.00 | 66 | 1007.1 |
| 20260902203622 | 96 | 201 | 2.0 | 2.0 | 0.00 | 0.00 | 0.00 | 68 | 1007.1 |
| 20260902203121 | 97 | 218 | 2.0 | 2.0 | 0.00 | 0.00 | 0.00 | 65 | 1007.5 |
| 20260902202612 | 96 | 306 | 2.0 | 2.0 | 0.00 | 0.00 | 0.00 | 64 | 1007.2 |
| 20260902202109 | 96 | 215 | 2.0 | 3.0 | 0.00 | 0.00 | 0.00 | 69 | 1007.2 |
| 20260902201604 | 96 | 161 | 2.0 | 3.0 | 0.00 | 0.00 | 0.00 | 65 | 1007.3 |
| 20260902201103 | 97 | 195 | 2.0 | 3.0 | 0.00 | 0.00 | 0.00 | 64 | 1007.6 |
| 20260902200558 | 98 | 215 | 2.0 | 3.0 | 0.00 | 0.00 | 0.00 | 64 | 1007.5 |
| 20260902200054 | 98 | 195 | 2.0 | 3.0 | 0.00 | 0.00 | 0.00 | 64 | 1007.5 |
| 20260902195550 | 96 | 220 | 1.0 | 2.0 | 0.00 | 0.00 | 0.00 | 65 | 1007.9 |
| 20260902195048 | 97 | 222 | 1.0 | 1.0 | 0.00 | 0.00 | 0.00 | 65 | 1007.8 |
| 20260902194542 | 97 | 134 | 4.0 | 4.0 | 0.00 | 0.00 | 0.00 | 63 | 1007.9 |
| 20260902194038 | 97 | 222 | 3.0 | 4.0 | 0.00 | 0.00 | 0.00 | 65 | 1007.8 |
| 20260902193534 | 96 | 191 | 2.0 | 4.0 | 0.00 | 0.00 | 0.00 | 66 | 1007.8 |
| 20260902193033 | 96 | 201 | 4.0 | 4.0 | 0.00 | 0.00 | 0.00 | 65 | 1008.0 |
| 20260902192532 | 97 | 168 | 3.0 | 4.0 | 0.00 | 0.00 | 0.00 | 65 | 1008.0 |
| 20260902192030 | 98 | 218 | 1.0 | 1.0 | 0.00 | 0.00 | 0.00 | 63 | 1008.0 |
| 20260902191526 | 97 | 210 | 2.0 | 3.0 | 0.00 | 0.00 | 0.00 | 64 | 1008.2 |
| 20260902191020 | 97 | 226 | 5.0 | 7.0 | 0.00 | 0.00 | 0.00 | 64 | 1008.3 |
| 20260902190516 | 97 | 216 | 1.0 | 2.0 | 0.00 | 0.00 | 0.00 | 65 | 1008.2 |
| 20260902190011 | 96 | 211 | 4.0 | 8.0 | 0.00 | 0.00 | 0.00 | 65 | 1008.3 |
| 20260902185508 | 96 | 250 | 1.0 | 1.0 | 0.00 | 0.00 | 0.00 | 66 | 1008.2 |
| 20260902185003 | 97 | 211 | 1.0 | 2.0 | 0.00 | 0.00 | 0.00 | 66 | 1008.4 |
| 20260902184458 | 96 | 174 | 2.0 | 6.0 | 0.00 | 0.00 | 0.00 | 65 | 1008.4 |
| 20260902183952 | 97 | 180 | 4.0 | 7.0 | 0.00 | 0.00 | 0.00 | 64 | 1008.7 |
| 20260902183449 | 97 | 226 | 2.0 | 3.0 | 0.00 | 0.00 | 0.00 | 65 | 1008.5 |
| 20260902182939 | 97 | 126 | 2.0 | 3.0 | 0.00 | 0.00 | 0.00 | 65 | 1008.7 |
| 20260902182435 | 96 | 206 | 0.0 | 1.0 | 0.00 | 0.00 | 0.00 | 66 | 1008.6 |
| 20260902181931 | 95 | 200 | 2.0 | 2.0 | 0.00 | 0.00 | 0.00 | 67 | 1008.8 |
| 20260902181427 | 97 | 203 | 2.0 | 4.0 | 0.00 | 0.00 | 0.00 | 65 | 1008.7 |
| 20260902180921 | 97 | 193 | 4.0 | 4.0 | 0.00 | 0.00 | 0.00 | 65 | 1009.1 |
| 20260902180416 | 96 | 189 | 3.0 | 4.0 | 0.00 | 0.00 | 0.00 | 65 | 1008.9 |
| 20260902175912 | 97 | 220 | 2.0 | 3.0 | 0.00 | 0.00 | 0.00 | 63 | 1009.1 |
| 20260902175406 | 97 | 219 | 1.0 | 2.0 | 0.00 | 0.00 | 0.00 | 64 | 1009.3 |
| 20260902174902 | 97 | 178 | 3.0 | 6.0 | 0.00 | 0.00 | 0.00 | 62 | 1009.4 |
| 20260902174359 | 96 | 219 | 1.0 | 2.0 | 0.00 | 0.00 | 0.00 | 65 | 1009.1 |
| 20260902173849 | 98 | 218 | 1.0 | 2.0 | 0.00 | 0.00 | 0.00 | 63 | 1009.3 |
| 20260902173348 | 98 | 184 | 2.0 | 4.0 | 0.00 | 0.00 | 0.00 | 56 | 1009.4 |
| 20260902172843 | 98 | 119 | 3.0 | 4.0 | 0.00 | 0.00 | 0.00 | 57 | 1009.4 |
| 20260902172342 | 98 | 167 | 1.0 | 3.0 | 0.00 | 0.00 | 0.00 | 57 | 1009.6 |
| 20260902171837 | 98 | 196 | 2.0 | 2.0 | 0.00 | 0.00 | 0.00 | 57 | 1009.4 |
| 20260902171332 | 98 | 233 | 0.0 | 0.0 | 0.00 | 0.00 | 0.00 | 57 | 1009.6 |
| 20260902170823 | 97 | 211 | 1.0 | 2.0 | 0.00 | 0.00 | 0.00 | 57 | 1009.9 |
| 20260902170319 | 97 | 181 | 2.0 | 2.0 | 0.00 | 0.00 | 0.00 | 56 | 1009.8 |
| 20260902165814 | 97 | 218 | 3.0 | 4.0 | 0.00 | 0.00 | 0.00 | 56 | 1010.0 |
| 20260902165313 | 96 | 194 | 2.0 | 3.0 | 0.00 | 0.00 | 0.00 | 57 | 1010.0 |
| 20260902164808 | 96 | 208 | 2.0 | 2.0 | 0.00 | 0.00 | 0.00 | 58 | 1010.1 |
| 20260902164302 | 96 | 184 | 2.0 | 3.0 | 0.00 | 0.00 | 0.00 | 58 | 1010.1 |
| 20260902163752 | 97 | 204 | 2.0 | 3.0 | 0.00 | 0.00 | 0.00 | 57 | 1010.2 |
| 20260902163251 | 97 | 233 | 1.0 | 2.0 | 0.00 | 0.00 | 0.00 | 56 | 1010.0 |
| 20260902162750 | 96 | 104 | 2.0 | 4.0 | 0.00 | 0.00 | 0.00 | 57 | 1010.2 |
| 20260902162245 | 97 | 178 | 5.0 | 7.0 | 0.00 | 0.00 | 0.00 | 55 | 1010.3 |
| 20260902161740 | 95 | 211 | 1.0 | 2.0 | 0.00 | 0.00 | 0.00 | 58 | 1010.1 |
| 20260902161235 | 95 | 220 | 2.0 | 2.0 | 0.00 | 0.00 | 0.00 | 60 | 1010.4 |
| 20260902160731 | 96 | 170 | 2.0 | 3.0 | 0.00 | 0.00 | 0.00 | 60 | 1010.3 |
| 20260902160226 | 95 | 238 | 1.0 | 2.0 | 0.00 | 0.00 | 0.00 | 63 | 1010.3 |
| 20260902155724 | 93 | 217 | 1.0 | 1.0 | 0.00 | 0.00 | 0.00 | 66 | 1010.4 |
| 20260902155223 | 93 | 197 | 1.0 | 1.0 | 0.00 | 0.00 | 0.00 | 66 | 1010.5 |
| 20260902154718 | 94 | 203 | 1.0 | 1.0 | 0.00 | 0.00 | 0.00 | 66 | 1010.3 |
| 20260902154213 | 93 | 234 | 0.0 | 1.0 | 0.00 | 0.00 | 0.00 | 68 | 1010.5 |
| 20260902153712 | 92 | 214 | 1.0 | 2.0 | 0.00 | 0.00 | 0.00 | 69 | 1010.7 |
| 20260902153207 | 92 | 226 | 3.0 | 4.0 | 0.00 | 0.00 | 0.00 | 71 | 1010.5 |
| 20260902152703 | 91 | 213 | 1.0 | 1.0 | 0.00 | 0.00 | 0.00 | 72 | 1010.5 |
| 20260902152158 | 91 | 218 | 0.0 | 1.0 | 0.00 | 0.00 | 0.00 | 72 | 1010.6 |
| 20260902151654 | 91 | 222 | 1.0 | 1.0 | 0.00 | 0.00 | 0.00 | 73 | 1010.3 |
| 20260902151148 | 91 | 217 | 1.0 | 2.0 | 0.00 | 0.00 | 0.00 | 74 | 1010.6 |
| 20260902150643 | 90 | 110 | 3.0 | 4.0 | 0.00 | 0.00 | 0.00 | 75 | 1010.5 |
| 20260902150139 | 89 | 225 | 2.0 | 2.0 | 0.00 | 0.00 | 0.00 | 76 | 1010.4 |
| 20260902145639 | 90 | 163 | 3.0 | 3.0 | 0.00 | 0.00 | 0.00 | 75 | 1010.4 |
| 20260902145138 | 89 | 217 | 1.0 | 1.0 | 0.00 | 0.00 | 0.00 | 78 | 1010.3 |
| 20260902144635 | 89 | 181 | 1.0 | 2.0 | 0.00 | 0.00 | 0.00 | 79 | 1010.4 |
| 20260902144130 | 88 | 221 | 1.0 | 2.0 | 0.00 | 0.00 | 0.00 | 81 | 1010.5 |
| 20260902143625 | 88 | 217 | 2.0 | 2.0 | 0.00 | 0.00 | 0.00 | 81 | 1010.4 |
| 20260902143121 | 88 | 212 | 0.0 | 0.0 | 0.00 | 0.00 | 0.00 | 81 | 1010.4 |
| 20260902142616 | 88 | 169 | 2.0 | 2.0 | 0.00 | 0.00 | 0.00 | 81 | 1010.4 |
| 20260902142112 | 87 | 132 | 1.0 | 3.0 | 0.00 | 0.00 | 0.00 | 83 | 1010.4 |
| 20260902141611 | 86 | 217 | 0.0 | 0.0 | 0.00 | 0.00 | 0.00 | 85 | 1010.2 |
| 20260902141107 | 86 | 216 | 0.0 | 0.0 | 0.00 | 0.00 | 0.00 | 85 | 1010.3 |
| 20260902140602 | 85 | 216 | 0.0 | 0.0 | 0.00 | 0.00 | 0.00 | 86 | 1010.1 |
| 20260902140057 | 85 | 207 | 1.0 | 1.0 | 0.00 | 0.00 | 0.00 | 86 | 1010.3 |
| 20260902135556 | 85 | 175 | 1.0 | 2.0 | 0.00 | 0.00 | 0.00 | 86 | 1010.3 |
| 20260902135056 | 85 | 196 | 0.0 | 0.0 | 0.00 | 0.00 | 0.00 | 87 | 1010.2 |
| 20260902134552 | 84 | 216 | 2.0 | 2.0 | 0.00 | 0.00 | 0.00 | 87 | 1010.0 |
| 20260902134046 | 84 | 208 | 0.0 | 0.0 | 0.00 | 0.00 | 0.00 | 88 | 1009.9 |
| 20260902133541 | 83 | 198 | 0.0 | 1.0 | 0.00 | 0.00 | 0.00 | 89 | 1009.9 |
| 20260902133036 | 83 | 217 | 0.0 | 0.0 | 0.00 | 0.00 | 0.00 | 90 | 1010.2 |
| 20260902132531 | 83 | 217 | 0.0 | 1.0 | 0.00 | 0.00 | 0.00 | 90 | 1010.0 |
| 20260902132027 | 82 | 218 | 1.0 | 1.0 | 0.00 | 0.00 | 0.00 | 91 | 1010.0 |
| 20260902131523 | 82 | 189 | 1.0 | 2.0 | 0.00 | 0.00 | 0.00 | 91 | 1009.9 |
| 20260902131022 | 82 | 213 | 0.0 | 0.0 | 0.00 | 0.00 | 0.00 | 92 | 1009.9 |
| 20260902130518 | 82 | 215 | 0.0 | 0.0 | 0.00 | 0.00 | 0.00 | 92 | 1009.8 |
| 20260902130014 | 82 | 193 | 0.0 | 0.0 | 0.00 | 0.00 | 0.00 | 92 | 1009.8 |
| 20260902125509 | 81 | 196 | 0.0 | 0.0 | 0.00 | 0.00 | 0.00 | 92 | 1009.8 |
| 20260902125005 | 81 | 220 | 0.0 | 0.0 | 0.00 | 0.00 | 0.00 | 93 | 1009.9 |
| 20260902124501 | 81 | 217 | 0.0 | 0.0 | 0.00 | 0.00 | 0.00 | 93 | 1009.6 |
| 20260902123955 | 81 | 210 | 0.0 | 0.0 | 0.00 | 0.00 | 0.00 | 93 | 1009.4 |
| 20260902123452 | 81 | 199 | 0.0 | 0.0 | 0.00 | 0.00 | 0.00 | 93 | 1009.6 |
| 20260902122950 | 81 | 259 | 0.0 | 0.0 | 0.00 | 0.00 | 0.00 | 93 | 1009.8 |
| 20260902122446 | 81 | 226 | 0.0 | 0.0 | 0.00 | 0.00 | 0.00 | 94 | 1009.5 |
| 20260902121941 | 80 | 222 | 0.0 | 0.0 | 0.00 | 0.00 | 0.00 | 94 | 1009.5 |
| 20260902121436 | 81 | 210 | 0.0 | 0.0 | 0.00 | 0.00 | 0.00 | 94 | 1009.4 |
| 20260902120931 | 81 | 217 | 0.0 | 0.0 | 0.00 | 0.00 | 0.00 | 94 | 1009.6 |
| 20260902120427 | 81 | 211 | 1.0 | 1.0 | 0.00 | 0.00 | 0.00 | 94 | 1009.5 |
| 20260902115926 | 81 | 211 | 1.0 | 1.0 | 0.00 | 0.00 | 0.00 | 94 | 1009.4 |
| 20260902115422 | 81 | 205 | 0.0 | 0.0 | 0.00 | 0.00 | 0.00 | 94 | 1009.4 |
| 20260902114919 | 81 | 212 | 0.0 | 0.0 | 0.00 | 0.00 | 0.00 | 94 | 1009.3 |
| 20260902114414 | 81 | 215 | 0.0 | 0.0 | 0.00 | 0.00 | 0.00 | 94 | 1009.7 |
| 20260902113909 | 81 | 209 | 0.0 | 0.0 | 0.00 | 0.00 | 0.00 | 94 | 1009.3 |
| 20260902113405 | 81 | 210 | 0.0 | 0.0 | 0.00 | 0.00 | 0.00 | 94 | 1009.6 |
| 20260902112904 | 81 | 211 | 0.0 | 0.0 | 0.00 | 0.00 | 0.00 | 94 | 1009.4 |
| 20260902112401 | 81 | 209 | 1.0 | 1.0 | 0.00 | 0.00 | 0.00 | 94 | 1009.6 |
| 20260902111856 | 81 | 191 | 1.0 | 1.0 | 0.00 | 0.00 | 0.00 | 94 | 1009.3 |
| 20260902111353 | 81 | 234 | 0.0 | 0.0 | 0.00 | 0.00 | 0.00 | 94 | 1009.2 |
| 20260902110848 | 81 | 204 | 0.0 | 0.0 | 0.00 | 0.00 | 0.00 | 94 | 1009.3 |
| 20260902110343 | 81 | 218 | 0.0 | 0.0 | 0.00 | 0.00 | 0.00 | 94 | 1009.1 |
| 20260902105843 | 81 | 216 | 0.0 | 0.0 | 0.00 | 0.00 | 0.00 | 94 | 1009.4 |
| 20260902105338 | 81 | 215 | 0.0 | 1.0 | 0.00 | 0.00 | 0.00 | 94 | 1009.2 |
| 20260902104833 | 81 | 209 | 0.0 | 0.0 | 0.00 | 0.00 | 0.00 | 94 | 1009.3 |
| 20260902104329 | 81 | 207 | 0.0 | 0.0 | 0.00 | 0.00 | 0.00 | 94 | 1009.2 |
| 20260902103824 | 81 | 181 | 1.0 | 2.0 | 0.00 | 0.00 | 0.00 | 94 | 1009.3 |
| 20260902103319 | 81 | 136 | 2.0 | 3.0 | 0.00 | 0.00 | 0.00 | 94 | 1009.2 |
| 20260902102814 | 81 | 206 | 1.0 | 2.0 | 0.00 | 0.00 | 0.00 | 94 | 1009.1 |
| 20260902102312 | 81 | 194 | 1.0 | 1.0 | 0.00 | 0.00 | 0.00 | 94 | 1009.1 |
| 20260902101807 | 81 | 221 | 0.0 | 0.0 | 0.00 | 0.00 | 0.00 | 93 | 1009.2 |
| 20260902101307 | 81 | 216 | 0.0 | 0.0 | 0.00 | 0.00 | 0.00 | 94 | 1009.2 |
| 20260902100801 | 81 | 197 | 0.0 | 1.0 | 0.00 | 0.00 | 0.00 | 94 | 1009.1 |
| 20260902100301 | 81 | 202 | 0.0 | 0.0 | 0.00 | 0.00 | 0.00 | 93 | 1009.1 |
| 20260902095755 | 81 | 214 | 0.0 | 0.0 | 0.00 | 0.00 | 0.00 | 93 | 1008.9 |
| 20260902095250 | 81 | 183 | 1.0 | 2.0 | 0.00 | 0.00 | 0.00 | 93 | 1008.9 |
| 20260902094745 | 81 | 199 | 1.0 | 2.0 | 0.00 | 0.00 | 0.00 | 93 | 1009.2 |
| 20260902094241 | 81 | 191 | 1.0 | 1.0 | 0.00 | 0.00 | 0.00 | 93 | 1009.1 |
| 20260902093740 | 81 | 221 | 0.0 | 0.0 | 0.00 | 0.00 | 0.00 | 93 | 1009.0 |
| 20260902093235 | 81 | 211 | 0.0 | 0.0 | 0.00 | 0.00 | 0.00 | 94 | 1009.1 |
| 20260902092734 | 81 | 266 | 0.0 | 0.0 | 0.00 | 0.00 | 0.00 | 94 | 1009.1 |
| 20260902092230 | 81 | 208 | 0.0 | 0.0 | 0.00 | 0.00 | 0.00 | 94 | 1009.1 |
| 20260902091729 | 82 | 234 | 1.0 | 2.0 | 0.00 | 0.00 | 0.00 | 94 | 1009.1 |
| 20260902091226 | 82 | 257 | 0.0 | 0.0 | 0.00 | 0.00 | 0.00 | 94 | 1009.2 |
| 20260902090722 | 82 | 194 | 1.0 | 2.0 | 0.00 | 0.00 | 0.00 | 94 | 1009.1 |
| 20260902090221 | 82 | 207 | 0.0 | 0.0 | 0.00 | 0.00 | 0.00 | 94 | 1009.1 |
| 20260902085716 | 82 | 205 | 1.0 | 1.0 | 0.00 | 0.00 | 0.00 | 94 | 1009.4 |
| 20260902085210 | 82 | 151 | 1.0 | 2.0 | 0.00 | 0.00 | 0.00 | 93 | 1009.2 |
| 20260902084707 | 82 | 227 | 0.0 | 0.0 | 0.00 | 0.00 | 0.00 | 93 | 1009.1 |
| 20260902084203 | 82 | 206 | 0.0 | 0.0 | 0.00 | 0.00 | 0.00 | 93 | 1009.4 |
| 20260902083652 | 82 | 166 | 2.0 | 3.0 | 0.00 | 0.00 | 0.00 | 93 | 1009.6 |
| 20260902083151 | 82 | 205 | 0.0 | 2.0 | 0.00 | 0.00 | 0.00 | 94 | 1009.5 |
| 20260902082647 | 82 | 208 | 1.0 | 1.0 | 0.00 | 0.00 | 0.00 | 94 | 1009.5 |
| 20260902082144 | 82 | 207 | 0.0 | 0.0 | 0.00 | 0.00 | 0.00 | 94 | 1009.6 |
| 20260902081639 | 82 | 200 | 1.0 | 2.0 | 0.00 | 0.00 | 0.00 | 94 | 1009.4 |
| 20260902081133 | 82 | 195 | 0.0 | 1.0 | 0.00 | 0.00 | 0.00 | 94 | 1009.2 |
| 20260902080624 | 82 | 179 | 1.0 | 1.0 | 0.00 | 0.00 | 0.00 | 94 | 1009.7 |
| 20260902080120 | 82 | 199 | 0.0 | 0.0 | 0.00 | 0.00 | 0.00 | 94 | 1009.6 |
| 20260902075619 | 82 | 211 | 0.0 | 0.0 | 0.00 | 0.00 | 0.00 | 94 | 1009.5 |
| 20260902075116 | 82 | 218 | 0.0 | 0.0 | 0.00 | 0.00 | 0.00 | 94 | 1009.4 |
| 20260902074611 | 82 | 217 | 0.0 | 0.0 | 0.00 | 0.00 | 0.00 | 94 | 1009.4 |
| 20260902074106 | 82 | 155 | 0.0 | 1.0 | 0.00 | 0.00 | 0.00 | 94 | 1009.4 |
| 20260902073601 | 82 | 223 | 0.0 | 1.0 | 0.00 | 0.00 | 0.00 | 93 | 1009.6 |
| 20260902073058 | 82 | 226 | 0.0 | 0.0 | 0.00 | 0.00 | 0.00 | 93 | 1009.3 |
| 20260902072553 | 82 | 179 | 1.0 | 3.0 | 0.00 | 0.00 | 0.00 | 93 | 1009.4 |
| 20260902072050 | 83 | 148 | 1.0 | 4.0 | 0.00 | 0.00 | 0.00 | 93 | 1009.4 |
| 20260902071549 | 83 | 219 | 0.0 | 0.0 | 0.00 | 0.00 | 0.00 | 92 | 1009.5 |
| 20260902071046 | 83 | 192 | 3.0 | 4.0 | 0.00 | 0.00 | 0.00 | 92 | 1009.5 |
| 20260902070540 | 83 | 221 | 0.0 | 0.0 | 0.00 | 0.00 | 0.00 | 92 | 1009.7 |
| 20260902070036 | 83 | 211 | 0.0 | 1.0 | 0.00 | 0.00 | 0.00 | 92 | 1009.9 |
| 20260902065535 | 83 | 174 | 2.0 | 3.0 | 0.00 | 0.00 | 0.00 | 92 | 1009.7 |
| 20260902065030 | 83 | 212 | 0.0 | 1.0 | 0.00 | 0.00 | 0.00 | 92 | 1009.9 |
| 20260902064526 | 83 | 207 | 0.0 | 0.0 | 0.00 | 0.00 | 0.00 | 92 | 1009.8 |
| 20260902064021 | 83 | 175 | 0.0 | 0.0 | 0.00 | 0.00 | 0.00 | 92 | 1009.8 |
| 20260902063520 | 83 | 203 | 2.0 | 3.0 | 0.00 | 0.00 | 0.00 | 92 | 1009.8 |
| 20260902063016 | 83 | 90 | 1.0 | 1.0 | 0.00 | 0.00 | 0.00 | 92 | 1009.7 |
| 20260902062514 | 83 | 197 | 0.0 | 0.0 | 0.00 | 0.00 | 0.00 | 92 | 1009.8 |
| 20260902062010 | 83 | 210 | 2.0 | 2.0 | 0.00 | 0.00 | 0.00 | 91 | 1009.6 |
| 20260902061504 | 83 | 188 | 1.0 | 2.0 | 0.00 | 0.00 | 0.00 | 91 | 1009.7 |
| 20260902061001 | 83 | 208 | 1.0 | 2.0 | 0.00 | 0.00 | 0.00 | 91 | 1009.7 |
| 20260902060457 | 83 | 194 | 2.0 | 3.0 | 0.00 | 0.00 | 0.00 | 91 | 1009.7 |
| 20260902055952 | 83 | 205 | 1.0 | 2.0 | 0.00 | 0.00 | 0.00 | 91 | 1009.9 |
| 20260902055448 | 83 | 190 | 4.0 | 6.0 | 0.00 | 0.00 | 0.00 | 91 | 1010.1 |
| 20260902054944 | 83 | 210 | 0.0 | 0.0 | 0.00 | 0.00 | 0.00 | 90 | 1009.9 |
| 20260902054433 | 83 | 193 | 1.0 | 1.0 | 0.00 | 0.00 | 0.00 | 91 | 1009.8 |
| 20260902053929 | 83 | 178 | 2.0 | 2.0 | 0.00 | 0.00 | 0.00 | 91 | 1009.7 |
| 20260902053424 | 83 | 127 | 0.0 | 1.0 | 0.00 | 0.00 | 0.00 | 91 | 1010.0 |
| 20260902052923 | 83 | 203 | 0.0 | 0.0 | 0.00 | 0.00 | 0.00 | 91 | 1009.7 |
| 20260902052418 | 83 | 211 | 1.0 | 1.0 | 0.00 | 0.00 | 0.00 | 91 | 1009.6 |
| 20260902051914 | 83 | 221 | 0.0 | 0.0 | 0.00 | 0.00 | 0.00 | 91 | 1009.7 |
| 20260902051413 | 83 | 160 | 0.0 | 1.0 | 0.00 | 0.00 | 0.00 | 91 | 1009.8 |
| 20260902050912 | 84 | 204 | 0.0 | 0.0 | 0.00 | 0.00 | 0.00 | 90 | 1009.6 |
| 20260902050412 | 84 | 201 | 0.0 | 1.0 | 0.00 | 0.00 | 0.00 | 90 | 1009.6 |
| 20260902045907 | 84 | 201 | 1.0 | 2.0 | 0.00 | 0.00 | 0.00 | 90 | 1009.4 |
| 20260902045403 | 83 | 229 | 0.0 | 0.0 | 0.00 | 0.00 | 0.00 | 90 | 1009.4 |
| 20260902044859 | 84 | 216 | 0.0 | 0.0 | 0.00 | 0.00 | 0.00 | 90 | 1009.7 |
| 20260902044354 | 84 | 210 | 0.0 | 0.0 | 0.00 | 0.00 | 0.00 | 90 | 1009.4 |
| 20260902043854 | 84 | 209 | 0.0 | 1.0 | 0.00 | 0.00 | 0.00 | 89 | 1009.6 |
| 20260902043350 | 84 | 208 | 0.0 | 2.0 | 0.00 | 0.00 | 0.00 | 89 | 1009.7 |
| 20260902042845 | 84 | 211 | 3.0 | 6.0 | 0.00 | 0.00 | 0.00 | 89 | 1009.7 |
| 20260902042344 | 84 | 217 | 2.0 | 4.0 | 0.00 | 0.00 | 0.00 | 89 | 1009.4 |
| 20260902041839 | 84 | 197 | 0.0 | 0.0 | 0.00 | 0.00 | 0.00 | 88 | 1009.8 |
| 20260902041334 | 84 | 197 | 2.0 | 2.0 | 0.00 | 0.00 | 0.00 | 88 | 1009.7 |
| 20260902040832 | 84 | 221 | 0.0 | 0.0 | 0.00 | 0.00 | 0.00 | 88 | 1009.7 |
| 20260902040328 | 84 | 174 | 4.0 | 6.0 | 0.00 | 0.00 | 0.00 | 88 | 1009.5 |
| 20260902035827 | 84 | 201 | 1.0 | 2.0 | 0.00 | 0.00 | 0.00 | 88 | 1009.6 |
| 20260902035323 | 84 | 213 | 0.0 | 0.0 | 0.00 | 0.00 | 0.00 | 88 | 1009.5 |
| 20260902034821 | 84 | 147 | 1.0 | 1.0 | 0.00 | 0.00 | 0.00 | 88 | 1009.4 |
| 20260902034317 | 84 | 221 | 0.0 | 0.0 | 0.00 | 0.00 | 0.00 | 89 | 1009.7 |
| 20260902033814 | 84 | 214 | 1.0 | 2.0 | 0.00 | 0.00 | 0.00 | 88 | 1009.4 |
| 20260902033310 | 84 | 218 | 0.0 | 1.0 | 0.00 | 0.00 | 0.00 | 89 | 1009.4 |
| 20260902032809 | 84 | 209 | 1.0 | 1.0 | 0.00 | 0.00 | 0.00 | 89 | 1009.4 |
| 20260902032306 | 84 | 177 | 3.0 | 3.0 | 0.00 | 0.00 | 0.00 | 89 | 1009.3 |
| 20260902031803 | 84 | 221 | 3.0 | 6.0 | 0.00 | 0.00 | 0.00 | 89 | 1009.1 |
| 20260902031300 | 84 | 197 | 1.0 | 2.0 | 0.00 | 0.00 | 0.00 | 89 | 1009.2 |
| 20260902030755 | 84 | 202 | 1.0 | 2.0 | 0.00 | 0.00 | 0.00 | 89 | 1009.3 |
| 20260902030250 | 84 | 224 | 0.0 | 1.0 | 0.00 | 0.00 | 0.00 | 89 | 1009.2 |
| 20260902025749 | 85 | 172 | 1.0 | 2.0 | 0.00 | 0.00 | 0.00 | 89 | 1009.2 |
| 20260902025244 | 85 | 207 | 0.0 | 0.0 | 0.00 | 0.00 | 0.00 | 89 | 1008.7 |
| 20260902024738 | 85 | 207 | 1.0 | 2.0 | 0.00 | 0.00 | 0.00 | 89 | 1009.1 |
| 20260902024234 | 85 | 200 | 0.0 | 1.0 | 0.00 | 0.00 | 0.00 | 89 | 1008.8 |
| 20260902023730 | 85 | 152 | 3.0 | 4.0 | 0.00 | 0.00 | 0.00 | 89 | 1008.8 |
| 20260902023224 | 85 | 217 | 0.0 | 0.0 | 0.00 | 0.00 | 0.00 | 89 | 1008.6 |
| 20260902022719 | 85 | 212 | 0.0 | 0.0 | 0.00 | 0.00 | 0.00 | 89 | 1008.5 |
| 20260902022214 | 85 | 198 | 0.0 | 1.0 | 0.00 | 0.00 | 0.00 | 89 | 1008.5 |
| 20260902021709 | 85 | 208 | 0.0 | 0.0 | 0.00 | 0.00 | 0.00 | 88 | 1008.6 |
| 20260902021204 | 85 | 176 | 3.0 | 4.0 | 0.00 | 0.00 | 0.00 | 88 | 1008.3 |
| 20260902020700 | 85 | 213 | 1.0 | 1.0 | 0.00 | 0.00 | 0.00 | 88 | 1008.4 |
| 20260902020156 | 85 | 217 | 0.0 | 0.0 | 0.00 | 0.00 | 0.00 | 88 | 1007.9 |
| 20260902015651 | 85 | 213 | 0.0 | 1.0 | 0.00 | 0.00 | 0.00 | 87 | 1008.0 |
| 20260902015148 | 85 | 180 | 0.0 | 1.0 | 0.00 | 0.00 | 0.00 | 87 | 1008.0 |
| 20260902014643 | 85 | 174 | 2.0 | 3.0 | 0.00 | 0.00 | 0.00 | 87 | 1007.9 |
| 20260902014139 | 85 | 216 | 0.0 | 0.0 | 0.00 | 0.00 | 0.00 | 87 | 1007.7 |
| 20260902013637 | 85 | 2 | 1.0 | 1.0 | 0.00 | 0.00 | 0.00 | 86 | 1008.0 |
| 20260902013134 | 85 | 206 | 3.0 | 4.0 | 0.00 | 0.00 | 0.00 | 86 | 1007.9 |
| 20260902012629 | 85 | 213 | 0.0 | 0.0 | 0.00 | 0.00 | 0.00 | 85 | 1007.8 |
| 20260902012124 | 85 | 205 | 1.0 | 2.0 | 0.00 | 0.00 | 0.00 | 85 | 1007.6 |
| 20260902011620 | 85 | 219 | 3.0 | 4.0 | 0.00 | 0.00 | 0.00 | 85 | 1007.5 |
| 20260902011119 | 85 | 218 | 2.0 | 2.0 | 0.00 | 0.00 | 0.00 | 84 | 1007.6 |
| 20260902010613 | 86 | 179 | 0.0 | 0.0 | 0.00 | 0.00 | 0.00 | 84 | 1007.4 |
| 20260902010109 | 86 | 213 | 2.0 | 3.0 | 0.00 | 0.00 | 0.00 | 84 | 1007.6 |
| 20260902005606 | 86 | 171 | 2.0 | 3.0 | 0.00 | 0.00 | 0.00 | 83 | 1007.7 |
| 20260902005103 | 86 | 210 | 2.0 | 2.0 | 0.00 | 0.00 | 0.00 | 83 | 1007.8 |
| 20260902004602 | 86 | 193 | 3.0 | 3.0 | 0.00 | 0.00 | 0.00 | 83 | 1007.6 |
| 20260902004057 | 86 | 199 | 2.0 | 4.0 | 0.00 | 0.00 | 0.00 | 82 | 1007.6 |
| 20260902003552 | 86 | 203 | 3.0 | 7.0 | 0.00 | 0.00 | 0.00 | 81 | 1007.8 |
| 20260902003048 | 86 | 29 | 1.0 | 2.0 | 0.00 | 0.00 | 0.00 | 80 | 1007.6 |
| 20260902002543 | 87 | 210 | 1.0 | 2.0 | 0.00 | 0.00 | 0.00 | 79 | 1007.5 |
| 20260902002038 | 87 | 237 | 2.0 | 2.0 | 0.00 | 0.00 | 0.00 | 77 | 1007.4 |
| 20260902001532 | 88 | 211 | 3.0 | 4.0 | 0.00 | 0.00 | 0.00 | 77 | 1007.3 |
| 20260902001027 | 87 | 197 | 3.0 | 4.0 | 0.00 | 0.00 | 0.00 | 76 | 1007.5 |
| 20260902000517 | 88 | 222 | 2.0 | 2.0 | 0.00 | 0.00 | 0.00 | 75 | 1007.3 |
| 20260902000012 | 88 | 206 | 2.0 | 2.0 | 0.00 | 0.00 | 0.00 | 74 | 1007.8 |
| 20260901235507 | 89 | 200 | 1.0 | 1.0 | 0.00 | 0.00 | 0.00 | 74 | 1007.5 |